Location: Arzano
(47.9014°N, 3.4403°W)
Time: 04:32:13
(UTC+00:00)

Daily predictions for brighter satellites

Satellite Brightness Start Highest point End
(mag) Time Altitude Azimuth Time Altitude Azimuth Time Altitude Azimuth
Cosmos 1980 Rocket 4.5 03:36:51 20° E 03:36:51 20° E 03:39:35 10° NE
ATLAS 3B R/B 3.9 03:53:12 33° NE 03:53:12 33° NE 03:59:02 10° E
NOSS 3-2 (A) 4.1 04:13:07 71° ESE 04:13:07 71° ESE 04:20:33 10° SE
CENTAUR R/B 3.5 04:12:01 50° N 04:13:29 57° NE 04:21:58 10° ESE
USA 215 3.8 04:09:51 10° E 04:15:48 52° NNE 04:15:48 52° NNE
Nadezhda 1 Rocket 4.5 04:25:44 55° ENE 04:25:44 55° ENE 04:30:53 10° NNE
Cosmos 2263 Rocket 3.2 04:28:59 40° NE 04:29:30 41° NE 04:34:50 10° ESE
Lacrosse 5 rocket 3.9 04:33:22 18° NE 04:33:22 18° NE 04:34:55 10° NE
CZ-3 R/B 4.3 04:34:17 31° SW 04:40:27 35° SSW 04:49:31 10° SE
ATLAS 2AS CENTAUR R/B 3.7 04:37:50 22° S 04:42:52 52° ESE 04:50:32 10° NE
USA 238 DEB 3.9 04:52:03 59° SSW 04:52:03 59° SSW 04:58:32 10° SSE
USA 238 3.9 04:52:07 60° SSW 04:52:07 60° SSW 04:58:38 10° SSE
Cosmos 2344 3.4 04:50:42 67° WSW 04:51:50 82° NW 05:00:13 10° NE
Cosmos 2278 4.0 04:58:47 55° N 04:58:47 55° N 05:03:19 10° NNE
COSMOS 2455 2.8 05:01:23 70° SSW 05:02:06 84° ESE 05:08:10 10° NE
Cosmos 2154 Rocket 4.4 05:07:51 46° SSW 05:07:51 46° SSW 05:12:13 10° S
Orbus 7S? 4.2 05:07:24 48° ESE 05:07:24 48° ESE 05:11:35 10° ESE
Cosmos 1606 Rocket 4.3 05:03:35 10° S 05:07:53 53° E 05:12:11 10° NNE
SL-16 R/B 3.7 05:03:02 10° S 05:08:06 35° ESE 05:13:13 10° NE
Cosmos 2369 4.5 05:09:50 38° NNW 05:09:50 38° NNW 05:13:48 10° NNE
STARLINK-74 4.4 05:12:50 48° ENE 05:12:50 48° ENE 05:15:49 10° ENE
CZ-2C R/B 3.9 05:07:24 10° N 05:09:36 26° N 05:09:36 26° N
COSMO-SKYMED 1 2.8 05:08:11 10° SSE 05:12:23 69° E 05:12:23 69° E
STARLINK-39 4.3 05:14:27 50° ENE 05:14:27 50° ENE 05:17:29 10° ENE
Cosmos 1295 Rocket 4.3 05:07:26 10° NNW 05:13:39 76° W 05:19:44 10° S
STARLINK 4.3 05:16:03 52° ENE 05:16:03 52° ENE 05:19:10 10° ENE
STARLINK-69 4.2 05:17:49 53° ENE 05:17:49 53° ENE 05:20:58 10° ENE
STARLINK-21 4.1 05:19:14 56° ENE 05:19:14 56° ENE 05:22:28 10° ENE
Cosmos 1980 Rocket 2.1 05:18:40 67° WNW 05:18:51 68° WNW 05:24:31 10° NNE
Cosmos 2228 3.4 05:15:30 10° S 05:19:51 64° E 05:24:12 10° NNE
STARLINK-45 4.0 05:21:05 57° ENE 05:21:05 57° ENE 05:24:21 10° ENE
BREEZE-M DEB (TANK) 3.6 05:21:07 84° E 05:21:07 84° E 05:28:06 10° ESE
STARLINK-70 3.9 05:22:35 60° ENE 05:22:35 60° ENE 05:25:56 10° ENE
Cosmos 1328 4.4 05:21:05 43° NNE 05:22:02 56° ENE 05:25:55 10° SSE
STARLINK-76 3.9 05:24:01 63° ENE 05:24:01 63° ENE 05:27:26 10° ENE
STARLINK 3.8 05:25:36 65° NE 05:25:36 65° NE 05:29:06 10° ENE
Cosmos 1697 Rocket 3.5 05:26:19 33° NNW 05:26:19 33° NNW 05:30:20 10° NNE
Meteor 1-16 Rocket 4.5 05:19:57 10° S 05:25:50 74° E 05:31:38 10° NNE
STARLINK-32 3.7 05:27:12 68° NE 05:27:12 68° NE 05:30:46 10° ENE
Cosmos 2366 rocket 4.4 05:21:36 10° N 05:27:58 65° ENE 05:34:16 10° SSE
STARLINK-40 3.7 05:28:47 70° NE 05:28:47 70° NE 05:32:25 10° ENE
STARLINK-44 3.6 05:30:22 72° NE 05:30:22 72° NE 05:34:04 10° ENE
Genesis I 3.5 05:31:06 56° SSE 05:31:06 56° SSE 05:34:12 10° SSE
STARLINK-37 3.6 05:32:05 71° NNE 05:32:05 71° NNE 05:35:49 10° ENE
STARLINK-80 4.5 05:33:02 36° NNE 05:33:02 36° NNE 05:36:07 10° ENE
Cosmos 1908 4.1 05:28:56 10° S 05:32:44 51° E 05:36:32 10° NNE
STARLINK-36 3.5 05:33:32 74° NNE 05:33:32 74° NNE 05:37:22 10° ENE
Cosmos 962 Rocket 4.4 05:27:36 10° NNW 05:33:51 65° W 05:40:07 10° S
Cosmos 2056 Rocket 4.0 05:30:36 15° NNW 05:35:04 62° ENE 05:40:26 10° SE
STARLINK-68 3.5 05:35:22 71° N 05:35:22 71° N 05:39:14 10° ENE
SKYMED 3 4.4 05:32:03 10° S 05:36:22 69° WSW 05:36:33 68° W
STARLINK-63 3.5 05:36:51 72° N 05:36:51 72° N 05:40:46 10° ENE
STARLINK-35 3.4 05:38:18 74° NNW 05:38:18 74° NNW 05:42:19 10° ENE
STARLINK 1052 4.5 05:38:46 31° S 05:39:49 39° SE 05:43:20 10° ENE
STARLINK-51 3.4 05:39:55 72° NNW 05:39:57 72° NNW 05:44:00 10° ENE
ALOS 2.3 05:36:10 10° NNE 05:40:52 83° ESE 05:45:32 10° SSW
Cosmos 923 Rocket 3.9 05:37:26 19° SSW 05:41:18 78° WNW 05:46:40 10° NNE
STARLINK-30 3.4 05:41:30 70° NW 05:41:37 71° NNW 05:45:39 10° ENE
STARLINK 1068 4.4 05:41:56 31° S 05:43:06 42° SE 05:46:38 10° ENE
STARLINK-72 3.4 05:43:05 68° NW 05:43:16 70° NNW 05:47:17 10° ENE
NOSS 3-2 (C) 4.2 05:40:29 33° WNW 05:43:46 53° WSW 05:51:51 10° SSE
ATLAS 3B R/B 2.6 05:40:28 28° NW 05:44:17 81° SW 05:51:13 10° SSE
STARLINK-50 3.4 05:44:42 66° NW 05:44:56 68° NNW 05:48:58 10° ENE
STARLINK-42 3.4 05:46:36 61° NNW 05:46:36 61° NNW 05:50:16 10° ENE
STARLINK-59 3.5 05:46:24 63° NW 05:46:42 66° NNW 05:50:43 10° ENE
MOS 1-B 4.4 05:41:02 10° NNE 05:46:52 83° ESE 05:52:41 10° SSW
STARLINK-56 3.5 05:47:52 61° WNW 05:48:14 66° NNW 05:52:16 10° ENE
STARLINK 1028 3.4 05:49:09 50° SE 05:49:09 50° SE 05:51:57 10° ENE
STARLINK 1021 3.4 05:49:26 50° SE 05:49:26 50° SE 05:52:15 10° ENE
USA 116 3.8 05:44:57 10° SSE 05:49:30 86° WSW 05:52:17 20° NNW
STARLINK 1019 3.4 05:49:42 50° SE 05:49:42 50° SE 05:52:29 10° ENE
STARLINK 1060 4.2 05:48:17 30° SSW 05:49:42 46° SE 05:53:17 10° ENE
STARLINK 1012 3.4 05:49:52 51° SE 05:49:52 51° SE 05:52:42 10° ENE
Starlink (trailer) 3.5 05:49:27 59° WNW 05:49:54 65° NNW 05:53:55 10° ENE
STARLINK 1010 3.3 05:50:04 51° SSE 05:50:04 51° SSE 05:52:56 10° ENE
Timation 1 Rocket 4.4 05:47:37 32° NW 05:50:10 54° WSW 05:55:59 10° S
STARLINK 1026 3.3 05:50:18 51° SE 05:50:18 51° SE 05:53:09 10° ENE
STARLINK 1013 3.3 05:50:31 51° SSE 05:50:31 51° SSE 05:53:24 10° ENE
Cosmos 2227 4.5 05:49:23 38° WNW 05:50:34 44° WSW 05:55:51 10° S
STARLINK 1009 3.3 05:50:44 52° SSE 05:50:46 52° SSE 05:53:38 10° ENE
STARLINK 1015 3.3 05:50:57 52° SSE 05:50:59 52° SSE 05:53:51 10° ENE
STARLINK 1016 3.3 05:51:10 52° SSE 05:51:12 52° SSE 05:54:03 10° ENE
STARLINK 1008 3.3 05:51:22 52° SSE 05:51:24 52° SSE 05:54:16 10° ENE
STARLINK-38 3.5 05:51:02 57° WNW 05:51:33 64° NNW 05:55:34 10° ENE
STARLINK 1025 3.2 05:51:49 53° SSE 05:51:51 53° SSE 05:54:43 10° ENE
STARLINK 1017 3.2 05:52:02 53° SSE 05:52:07 53° SSE 05:54:58 10° ENE
STARLINK 1023 3.2 05:52:13 53° SSE 05:52:18 53° SSE 05:55:10 10° ENE
STARLINK 1007 3.2 05:52:27 53° SSE 05:52:32 54° SSE 05:55:25 10° ENE
STARLINK 1048 3.2 05:52:41 53° SSE 05:52:47 54° SSE 05:55:39 10° ENE
STARLINK 1030 4.1 05:51:27 29° SSW 05:53:00 49° SE 05:56:37 10° ENE
STARLINK 1049 3.2 05:52:54 54° SSE 05:53:00 54° SSE 05:55:52 10° ENE
STARLINK-65 3.5 05:52:37 55° WNW 05:53:12 63° NNW 05:57:13 10° ENE
STARLINK 1051 3.2 05:53:08 54° SSE 05:53:14 54° SSE 05:56:06 10° ENE
FALCON 9 DEB 3.0 05:53:43 69° NW 05:54:06 86° NE 05:57:37 10° ESE
Cosmos 1703 3.2 05:53:18 40° NNW 05:54:31 63° W 05:58:24 10° S
STARLINK-53 3.6 05:54:19 52° WNW 05:54:56 60° NNW 05:58:57 10° ENE
Transit 2A Rocket 4.4 05:52:36 24° SW 05:55:12 87° NW 05:59:36 10° NE
ADEOS Rocket 3.3 05:50:49 10° SSE 05:56:13 60° ENE 06:01:56 10° N
STARLINK 1020 4.0 05:54:39 28° SSW 05:56:20 52° SE 05:59:59 10° ENE
Meteor 1-11 4.1 05:50:48 10° NNW 05:56:26 87° W 06:02:05 10° S
Cosmos 1953 Rocket 3.7 05:55:42 33° NW 05:57:16 50° W 06:01:30 10° SSW
Cosmos 1900 4.5 05:54:33 23° NNW 05:57:38 71° NE 06:02:32 10° SE
STARLINK-64 3.5 05:57:29 51° NW 05:57:59 56° NNW 06:01:43 10° ENE
STARLINK-26 3.9 05:58:25 37° NNW 05:58:35 37° N 06:01:51 10° ENE
STARLINK-48 4.2 05:57:59 35° NNW 05:58:37 38° N 06:02:17 10° ENE
NOSS 3-4 (A) 3.3 05:53:23 14° SW 05:58:40 84° NW 06:05:08 10° NE
NOSS 3-4 (C) 3.3 05:53:24 13° SW 05:58:46 84° NW 06:05:14 10° NE
USA 215 3.2 05:52:29 10° SE 05:59:01 74° SW 06:03:09 25° WNW
STARLINK 1034 3.9 05:57:53 27° SSW 05:59:40 55° SE 06:03:20 10° ENE
SJ-12 3.9 05:56:33 10° N 06:00:33 56° WNW 06:04:33 10° SSW
SKYMED 2 4.0 05:56:33 10° SSW 06:00:36 39° W 06:00:58 38° W
METEOR-M 4.0 05:56:55 10° N 06:02:16 72° WNW 06:07:35 10° SSW
SL-8 Rocket 3.9 05:56:15 10° NNW 06:02:19 59° W 06:08:20 10° S
CENTAUR R/B 3.4 05:59:13 22° NW 06:04:24 52° WSW 06:12:45 10° SSE
STARLINK 1014 2.9 06:03:59 47° SW 06:04:40 69° SSE 06:07:42 10° ENE
USA 32 4.2 06:01:15 10° NNW 06:06:16 47° W 06:11:16 10° SSW
STARLINK 1033 3.7 06:04:22 24° SW 06:06:23 61° SSE 06:10:05 10° ENE
STARLINK-58 3.7 06:05:37 40° WNW 06:06:45 55° NNW 06:10:41 10° ENE
Lacrosse 5 2.3 06:02:12 10° SW 06:07:12 62° SE 06:12:14 10° ENE
STARLINK-62 3.8 06:07:18 38° WNW 06:08:29 53° NNW 06:12:26 10° ENE
Cosmos 2181 Rocket 4.0 06:02:21 10° SSW 06:08:30 61° WNW 06:14:48 10° N
Meteor 2-10 4.2 06:03:17 10° SSW 06:08:37 52° WNW 06:13:47 10° N
Cosmos 1437 4.1 06:07:14 10° N 06:10:05 37° ENE 06:12:56 10° SE
CZ-4B DEB 4.1 06:04:39 10° NNE 06:10:11 71° WNW 06:15:40 10° SSW
Cosmos 2322 Rocket 2.2 06:04:36 10° SSW 06:10:18 87° ESE 06:16:02 10° NNE
Lacrosse 5 rocket 2.9 06:09:00 20° NNW 06:11:17 30° NNE 06:15:13 10° ENE
Cosmos 158 Rocket 3.7 06:08:10 10° SSW 06:13:03 82° WNW 06:18:03 10° NNE
Cosmos 2263 Rocket 2.7 06:10:43 24° WNW 06:13:24 38° WSW 06:18:34 10° S
STARLINK 1029 2.9 06:14:57 30° SW 06:16:19 78° SSE 06:19:28 10° ENE
Cosmos 2341 Rocket 4.5 06:10:55 10° NNW 06:16:29 35° W 06:22:00 10° SSW
STARLINK-29 3.1 06:15:42 35° WNW 06:17:03 77° SSW 06:20:34 10° SE
Cosmos 1452 Rocket 4.2 06:12:12 10° NNW 06:17:22 53° ENE 06:22:30 10° SE
STARLINK-52 3.1 06:17:22 34° WNW 06:18:47 82° SSW 06:22:17 10° ESE
Cosmos 1726 3.8 06:22:37 17° NNW 06:22:37 17° NNW 06:23:55 10° NNW
Helios 1A Rocket 2.9 06:19:22 10° NNE 06:23:32 89° SE 06:27:40 10° SSW
SJ-7 4.4 06:20:05 10° N 06:24:16 80° WNW 06:28:28 10° SSW
STARLINK-43 4.0 06:22:33 24° NW 06:24:25 44° NNE 06:28:01 10° E
Cosmos 1844 Rocket 3.0 06:19:58 10° NNW 06:25:37 68° ENE 06:31:14 10° SE
STARLINK 1040 2.5 06:24:37 32° WSW 06:25:44 74° NNW 06:28:36 10° ENE
Okean O Rocket 1.5 06:21:33 10° N 06:26:00 67° WNW 06:30:22 10° SSW
STARLINK-34 4.0 06:26:25 24° WNW 06:28:27 46° NNW 06:32:19 10° ENE
Cosmos 1680 Rocket 3.9 06:24:20 10° SW 06:29:23 43° WNW 06:34:29 10° NNE
STARLINK 1044 3.3 06:27:20 16° WSW 06:30:15 88° SSE 06:34:02 10° ENE
STARLINK-33 3.9 06:29:20 24° WNW 06:30:59 40° N 06:34:22 10° ENE
STARLINK-66 3.9 06:30:56 23° WNW 06:32:38 39° N 06:36:01 10° ENE
STARLINK-24 4.0 06:30:27 22° WNW 06:32:43 46° NNW 06:36:36 10° ENE
Cosmos 1371 Rocket 4.5 06:28:56 12° NW 06:33:30 40° WSW 06:38:26 10° S
Gbstr 26 Del rocket 4.5 06:26:19 10° WSW 06:33:33 89° SSE 06:41:43 10° ENE
ATLAS 2AS CENTAUR R/B 3.2 06:26:10 10° WSW 06:34:00 54° NW 06:41:46 10° NE
STARLINK-55 3.9 06:32:35 22° WNW 06:34:21 39° N 06:37:44 10° ENE
STARLINK-81 4.0 06:32:10 21° WNW 06:34:32 46° NNW 06:38:26 10° ENE
EXPRESS MD2 2.5 06:33:17 25° WNW 06:34:36 54° N 06:36:47 10° E
NOAA 6 4.1 06:30:11 10° N 06:35:18 59° WNW 06:40:24 10° SSW
Cosmos 1821 Rocket 4.0 06:29:34 10° N 06:35:47 84° E 06:41:54 10° S
Cosmos 2058 Rocket 3.5 06:31:45 10° SW 06:35:50 38° WNW 06:39:56 10° N
STARLINK-28 4.0 06:34:16 21° WNW 06:36:07 38° N 06:39:28 10° ENE
STARLINK-54 4.0 06:34:00 20° WNW 06:36:25 45° NNW 06:40:19 10° ENE
SMAP 3.4 06:33:02 10° NNE 06:37:42 71° ESE 06:42:20 10° S
STARLINK 1035 3.1 06:34:58 15° WSW 06:37:45 81° NNW 06:41:16 10° ENE
STARLINK-77 4.0 06:35:22 20° WNW 06:37:52 45° NNW 06:41:46 10° ENE
STARLINK-75 4.0 06:37:10 20° WNW 06:39:26 40° N 06:43:03 10° ENE
Nadezhda 3 Rocket 4.1 06:33:18 10° S 06:39:26 82° E 06:45:40 10° N
STARLINK-25 4.0 06:36:57 19° WNW 06:39:32 45° NNW 06:43:25 10° ENE
STARLINK-60 4.3 06:38:33 19° W 06:40:11 28° SW 06:43:05 10° SSE
STARLINK-71 4.1 06:38:47 18° WNW 06:41:25 43° N 06:45:17 10° ENE
STARLINK 1027 3.1 06:38:34 15° WSW 06:41:25 74° NNW 06:44:55 10° ENE
CZ-4 R/B 4.3 06:39:06 10° NE 06:42:27 22° E 06:45:46 10° SE
STARLINK-79 4.1 06:40:04 18° WNW 06:42:47 44° N 06:46:40 10° ENE
STARLINK 1031 3.2 06:40:20 12° WSW 06:43:43 79° NNW 06:47:25 10° ENE
STARLINK-78 4.1 06:41:45 17° WNW 06:44:33 44° N 06:48:25 10° ENE
BREEZE-M DEB (TANK) 3.5 06:35:31 11° W 06:44:39 68° NNW 06:48:39 10° ENE
Cosmos 1420 Rocket 4.0 06:39:38 10° NNW 06:44:57 73° WSW 06:50:14 10° SSE
STARLINK-41 4.0 06:43:02 17° WNW 06:45:35 40° N 06:49:12 10° ENE
STARLINK-57 4.1 06:43:26 16° WNW 06:46:18 43° N 06:50:10 10° ENE
STARLINK 1024 3.2 06:43:23 11° WSW 06:46:53 76° NNW 06:50:35 10° ENE
FENGYUN 3A 4.3 06:42:23 10° N 06:47:10 33° WNW 06:51:56 10° SW
STARLINK-49 4.1 06:44:55 16° WNW 06:47:51 43° N 06:51:43 10° ENE
COSMOS 2455 3.9 06:44:35 13° W 06:48:46 26° NW 06:53:47 10° NNE
COSMO-SKYMED 1 4.2 06:46:54 10° WSW 06:49:08 14° W 06:49:37 14° W
STARLINK-27 4.1 06:46:31 15° WNW 06:49:32 43° N 06:53:23 10° ENE
STARLINK 4.0 06:47:54 15° WNW 06:50:40 40° N 06:54:16 10° ENE
STARLINK-74 4.1 06:48:05 15° WNW 06:51:10 42° N 06:55:02 10° ENE
STARLINK-61 4.3 06:48:59 15° WNW 06:51:58 38° N 06:55:41 10° ENE
SL-16 R/B 2.5 06:46:44 10° SW 06:52:07 43° NW 06:57:32 10° NNE
STARLINK-39 4.1 06:49:42 14° WNW 06:52:51 42° N 06:56:43 10° ENE
H-2A R/B 2.7 06:49:20 10° N 06:53:14 64° WNW 06:57:03 10° SSW
STARLINK 1032 3.3 06:49:35 10° WSW 06:53:17 70° NNW 06:56:59 10° ENE
Cosmos 1076 Rocket 3.5 06:49:13 10° NNW 06:53:36 77° W 06:57:57 10° S
STARLINK 4.2 06:51:18 14° WNW 06:54:32 42° N 06:58:23 10° ENE
Cosmos 1300 2.8 06:51:17 10° SSW 06:55:01 54° WNW 06:58:47 10° N
Cosmos 2322 4.3 06:50:36 10° SSW 06:56:11 62° ESE 07:01:47 10° NNE
STARLINK-69 4.2 06:53:04 13° WNW 06:56:22 41° N 07:00:12 10° ENE
Cosmos 2360 Rocket 2.2 06:50:45 10° SSW 06:56:25 81° WNW 07:02:08 10° NNE
STARLINK 1011 3.3 06:52:48 10° WSW 06:56:30 68° NNW 07:00:12 10° ENE
CZ-2C R/B 4.2 06:52:52 10° SE 06:57:38 35° ENE 07:02:31 10° N
STARLINK-21 4.2 06:54:29 13° WNW 06:57:52 41° N 07:01:42 10° ENE
STARLINK 1036 3.3 06:56:03 10° WSW 06:59:44 65° NNW 07:03:25 10° ENE
STARLINK-45 4.2 06:56:20 12° WNW 06:59:47 40° N 07:03:36 10° ENE
Alouette 2 Rocket 3.3 06:56:21 10° SSW 07:00:38 66° WNW 07:04:12 10° N
Cosmos 2219 Rocket 3.7 06:55:49 10° S 07:01:06 42° ESE 07:06:26 10° NE
CZ-4B R/B 3.5 06:55:59 10° N 07:01:12 43° WNW 07:06:17 10° SW
STARLINK-70 4.2 06:57:49 12° WNW 07:01:21 40° N 07:05:11 10° ENE
BREEZE M DEB (TANK) 3.7 06:49:40 11° WNW 07:02:07 68° SSW 07:05:50 10° SE
RESURS DK-1 2.6 06:58:31 10° SW 07:02:31 47° NW 07:06:34 10° NNE
STARLINK-76 4.2 06:59:16 11° WNW 07:02:52 41° N 07:06:42 10° ENE
Cosmos 1980 Rocket 3.7 07:00:29 10° WNW 07:03:59 17° NW 07:07:34 10° N
STARLINK 4.2 07:00:50 11° WNW 07:04:31 40° N 07:08:21 10° ENE
STARLINK-32 4.2 07:02:28 10° WNW 07:06:12 40° N 07:10:02 10° ENE
STARLINK 1047 3.4 07:02:32 10° WSW 07:06:13 60° NNW 07:09:55 10° ENE
Cosmos 1844 3.7 07:00:55 10° NNW 07:06:31 76° WSW 07:12:02 10° SSE
STARLINK-40 4.2 07:04:01 10° WNW 07:07:50 40° N 07:11:40 10° ENE
STARLINK 1037 3.4 07:04:11 10° WSW 07:07:51 59° NNW 07:11:33 10° ENE
Iridium 96 3.8 07:06:16 10° SSW 07:08:39 44° W 07:10:57 10° N
STARLINK 1065 4.5 07:04:41 10° SW 07:08:43 54° SE 07:12:46 10° ENE
Cosmos 1455 3.6 07:05:05 10° SSE 07:08:45 43° E 07:12:28 10° NNE
STARLINK-44 4.2 07:05:41 10° WNW 07:09:30 40° N 07:13:20 10° ENE
STARLINK 1059 3.5 07:07:29 10° W 07:11:09 57° NNW 07:14:50 10° ENE
STARLINK-37 4.3 07:07:28 10° WNW 07:11:17 40° N 07:15:07 10° ENE
STARLINK-80 4.0 07:07:39 10° WNW 07:11:22 48° NNE 07:15:04 10° E
Cosmos 1934 Rocket 4.0 07:05:38 10° N 07:11:47 85° W 07:17:58 10° S
Cosmos 2237 4.2 07:07:08 10° SW 07:12:48 65° WNW 07:18:30 10° NNE
STARLINK-36 4.3 07:09:01 10° WNW 07:12:49 40° N 07:16:39 10° ENE
STARLINK 1063 4.3 07:09:38 10° SW 07:13:42 58° SE 07:17:47 10° ENE
STARLINK 1057 3.5 07:10:47 10° W 07:14:26 56° NNW 07:18:07 10° ENE
STARLINK-68 4.3 07:10:55 10° WNW 07:14:43 39° N 07:18:32 10° ENE
Cosmos 2151 3.3 07:11:49 10° N 07:16:07 74° E 07:20:24 10° SSE
STARLINK-63 4.3 07:12:28 10° WNW 07:16:17 39° N 07:20:05 10° ENE
ALOS 3.8 07:15:06 10° NNW 07:17:40 15° WNW 07:20:13 10° W
STARLINK 1052 3.6 07:14:06 10° W 07:17:46 54° NNW 07:21:26 10° ENE
STARLINK-35 4.3 07:14:00 10° WNW 07:17:49 39° N 07:21:38 10° ENE
STARLINK 1064 4.2 07:14:33 10° SW 07:18:38 62° SSE 07:22:45 10° ENE
YAOGAN 6 2.5 07:15:52 10° N 07:19:25 82° WNW 07:22:55 10° SSW
STARLINK-51 4.3 07:15:41 10° WNW 07:19:30 39° N 07:23:19 10° ENE
Cosmos 332 Rocket 4.2 07:15:32 10° NNW 07:20:20 67° ENE 07:25:06 10° SSE
CORIOLIS 4.1 07:15:04 10° N 07:20:24 68° WNW 07:25:43 10° SSW
CZ-2C R/B 3.8 07:16:36 10° S 07:21:06 58° W 07:25:33 10° NNW
Cosmos 1048 Rocket 4.2 07:15:54 10° SSW 07:21:11 79° ESE 07:26:25 10° NNE
Cosmos 371 Rocket 3.4 07:16:48 10° NNW 07:21:42 86° ENE 07:26:32 10° SSE
COSMOS 2428 3.5 07:17:04 10° S 07:22:40 59° ESE 07:28:18 10° NE
